User: anonymous   Login
Location: The Top Of The Sky Mini Observatory
(41.4300°N, 81.2300°W)
Time: 20:55:02
(UTC-04:00)
Language:

Iridium 86 - Orbit

View from above orbital plane
View from above orbital plane
View from above satellite
View from above satellite

Ground track
Ground track

The orbit data is extracted from the following two-line orbital elements,

1 25528U 98066B   17113.83324828 +.00000249 +00000-0 +81789-4 0  9994
2 25528 086.3995 012.5297 0002149 088.6433 271.5009 14.34226133971334
Epoch (UTC): 23 April 2017 19:59:52
Eccentricity: 0.0002149
inclination: 86.3995°
perigee height: 776 km
apogee height: 779 km
right ascension of ascending node: 12.5297°
argument of perigee: 88.6433°
revolutions per day: 14.34226133
mean anomaly at epoch: 271.5009°
orbit number at epoch: 97133

The dashed part of the orbit path shows where the satellite is in the earth's shadow,  

DLR